Terminal Aerodrome Forecast
Issued by NWS Cleveland, OH

Home | Current Version | Previous Version | Graphics & Text | Print | Product List | Glossary On
Versions: 1 2 3 4 5 6 7 8 9 10 11 12 13 14 15 16 17 18 19 20 21 22 23 24 25 26
268
FTUS41 KCLE 051336 AAA
TAFCLE
TAF AMD
KCLE 051336Z 0514/0618 25007KT P6SM FEW025
     FM051500 28007KT P6SM SCT250
     FM051700 22006KT P6SM OVC060
     FM061100 22007KT P6SM BKN120
     FM061500 22009KT P6SM BKN040=

USA.gov is the U.S. government's official web portal to all federal, state and local government web resources and services.